Location: Binningen
(47.7924°N, 8.7261°E)
Time: 20:45:24
(UTC+00:00)

Cosmos 1766 - Pass Details

Date: 17 May 2021
Orbit: 519 x 544 km, 82.5° (Epoch: 21 June)

Event Time Altitude Azimuth Distance (km) Brightness Sun altitude
Rises 23:21:46 0° 348° (NNW) 2,699 8.2 -22.7°
Reaches altitude 10° 23:23:56 10° 347° (NNW) 1,798 7.0 -22.7°
Enters shadow 23:27:44 71° 282° (WNW) 567 3.3 -22.6°
